Regional Weather Roundup
Issued by NWS

Home | Current Version | Previous Version | Graphics & Text | Print | Product List | Glossary On
Versions: 1 2 3 4 5 6 7 8 9 10 11 12 13 14 15 16 17 18 19 20 21 22 23 24 25 26 27 28 29 30 31 32 33 34 35 36 37 38 39 40 41 42 43 44 45 46 47 48 49 50
000
ASUS43 KLOT 271408
RWRIL

ILLINOIS REGIONAL WEATHER ROUNDUP
NATIONAL WEATHER SERVICE CHICAGO/ROMEOVILLE IL
900 AM CDT SAT AUG 27 2016

NOTE: "FAIR" INDICATES FEW OR NO CLOUDS BELOW 12,000 FEET WITH NO
SIGNIFICANT WEATHER AND/OR OBSTRUCTIONS TO VISIBILITY.

* THESE STATIONS ARE NOT UNDER NWS QUALITY CONTROL. THEY ALSO MAY NOT
  REPORT WEATHER SUCH AS PRECIPITATION OR FOG.

ILZ001-002-007-009-015-016-024-271500-
NORTHWEST ILLINOIS

CITY           SKY/WX    TMP DP  RH WIND       PRES   REMARKS
MOLINE         MOSUNNY   75  70  84 SW9       30.02F
STERLING*      CLOUDY    71  69  93 CALM      30.04
SAVANNA*       CLOUDY    69  68  96 NE3       30.04S FOG
$$

ILZ003-004-008-010-011-017-018-271500-
NORTH CENTRAL ILLINOIS

CITY           SKY/WX    TMP DP  RH WIND       PRES   REMARKS
ROCKFORD       CLOUDY    69  67  93 E6        30.06F
FREEPORT*      CLOUDY    66  65  96 SE6       30.07F FOG
ROCHELLE*      CLOUDY    70  69  96 CALM      30.06F FOG
DE KALB*       CLOUDY    70  69  96 CALM      30.07S
$$

ILZ005-006-012>014-019>023-271500-
NORTHEAST ILLINOIS

CITY           SKY/WX    TMP DP  RH WIND       PRES   REMARKS
CHICAGO-OHARE  CLOUDY    71  69  93 SE7       30.06F
CHICAGO-MIDWAY LGT RAIN  72  70  93 SE9       30.07R FOG
AURORA         CLOUDY    72  70  93 SE8       30.06S
LANSING*       CLOUDY    71  71 100 SE5       30.09F
JOLIET*        RAIN      72  72  99 SE3       30.07S
WAUKEGAN       CLOUDY    70  69  97 S8        30.05F
DUPAGE AIRPORT LGT RAIN  71  68  90 SE7       30.06R
KANKAKEE*      CLOUDY    73  71  95 SE7       30.09F
WHEELING       CLOUDY    71  69  93 SE7       30.07R
MORRIS*        LGT RAIN  71  70  97 SE6       30.04F
ROMEOVILLE*    LGT RAIN  70  70 100 S7        30.07S
NORTHERLY ISL    N/A     70  68  93 SE5         N/A
$$

LMZ740>746-271500-
SOUTHERN LAKE MICHIGAN

STATION/POSITION SKY/WX   TEMP    WIND        PRES    VSBY  WAVE
                          AIR SEA DIR/SP/G                  HT/PER
                          (F)     (DEG/KT/KT) (MB)    (MI)  (FT/S)
SOUTHERN BUOY              72 74  140/ 10/ 14 1017.5F         2/ 4
WILMETTE HARBOR            70 69  160/  6/  8   N/A           2/ 5
HARRISON CRIB              71     100/  7/  7   N/A
BURNHAM HARBOR             71     130/  5/  7   N/A
CALUMET HARBOR             70      40/  4/  5 1017.9F
BURNS HARBOR               69     100/  7/ 10 1019.6F
MICHIGAN CITY              69      60/  8/  8   N/A
MICHIGAN CITY 6N           71 75   70/  8/  8   N/A           1/ 4
ST. JOSEPH                 69 75   80/  4/  6 1019.6F         1
$$

ILZ025>027-034>036-040-047-049-050-058-095>099-271500-
WEST-CENTRAL ILLINOIS

CITY           SKY/WX    TMP DP  RH WIND       PRES   REMARKS
QUINCY         MOSUNNY   75  74  96 SW6       30.05S
GALESBURG*     PTSUNNY   71  70  97 S7        30.04F
MACOMB*        CLOUDY    71  71 100 S8        30.07S
JACKSONVILLE*  CLOUDY    75  73  91 SW7       30.06S
PITTSFIELD*    CLOUDY    74  72  96 SW5       30.07S
$$

ILZ028>032-037-038-041>044-048-051>054-059>061-271500-
CENTRAL ILLINOIS

CITY           SKY/WX    TMP DP  RH WIND       PRES   REMARKS
PONTIAC        CLOUDY    73  73 100 SE6       30.06F FOG
BLOOMINGTON    PTSUNNY   74  72  93 S8        30.08S
DECATUR        CLOUDY    76  72  87 S7        30.08F
PEORIA         CLOUDY    72  72 100 S7        30.05R
LACON*         CLOUDY    72  70  95 S6        30.03S
LINCOLN*       MOSUNNY   76  73  89 S5        30.06S
SPRINGFIELD    CLOUDY    77  71  82 S6        30.07R
TAYLORVILLE    CLOUDY    75  73  93 CALM      30.08S
$$

ILZ033-039-045-046-055>057-062-063-271500-
EAST-CENTRAL ILLINOIS

CITY           SKY/WX    TMP DP  RH WIND       PRES   REMARKS
CHAMPAIGN      PTSUNNY   76  72  87 S6        30.09F
RANTOUL*       CLOUDY    77  74  91 SW3       30.09F
MATTOON        CLOUDY    76  70  82 SW6       30.09F
PARIS*         CLOUDY    76  72  89 CALM      30.11F
$$

ILZ079-100>102-271500-
SOUTHWEST ILLINOIS

CITY           SKY/WX    TMP DP  RH WIND       PRES   REMARKS
ALTON          PTSUNNY   77  70  78 SW7       30.08S
BELLEVILLE     PTSUNNY   78  72  83 SE3       30.07S HX  80
CAHOKIA*       MOSUNNY   78  69  73 SW3       30.08R HX  80
SPARTA*        CLOUDY    75  71  87 CALM      30.10S
$$

ILZ064>066-069>071-074>076-080>082-084>086-088>090-092>094-271500-
SOUTH-CENTRAL ILLINOIS

CITY           SKY/WX    TMP DP  RH WIND       PRES   REMARKS
CARBONDALE     CLOUDY    72  69  90 CALM      30.10R
CAIRO*         CLOUDY    75  72  92 CALM      30.10S
EFFINGHAM*     SUNNY     75  73  93 CALM      30.11F
MARION         PTSUNNY   73  72  94 E6        30.11R
MT. VERNON     SUNNY     75  66  73 CALM      30.11S
CENTRALIA*     MOSUNNY   76  72  88 CALM      30.09F
SALEM*         SUNNY     76  70  82 CALM      30.10S
METROPOLIS*    CLOUDY    74  73  95 CALM      30.11R
$$

ILZ067-068-072-073-078-083-087-091-271500-
SOUTHEAST ILLINOIS

CITY           SKY/WX    TMP DP  RH WIND       PRES   REMARKS
LAWRENCEVILLE  LGT RAIN  73  72  96 CALM      30.13R
FLORA*         CLOUDY    77  72  84 SE3       30.10S
FAIRFIELD*     PTSUNNY   74  71  91 CALM      30.10R
HARRISBURG*    CLOUDY    73  71  95 CALM      30.11S
ROBINSON*      CLOUDY    73  72  97 CALM      30.12S
CARMI*         CLOUDY    73  72  96 CALM      30.11R
$$

ABBREVIATIONS USED IN REMARKS
   TC - TEMPERATURE IN CELSIUS
  WCI - WIND CHILL INDEX
   HX - HEAT INDEX
  VSB - VISIBILITY
$$





USA.gov is the U.S. government's official web portal to all federal, state and local government web resources and services.